Regional Weather Roundup
Issued by NWS Boston, MA

Home | Current Version | Previous Version | Text Only | Print | Product List | Glossary On
Versions: 1 2 3 4 5 6 7 8 9 10 11 12 13 14 15 16 17 18 19 20 21 22 23 24 25 26 27 28 29 30 31 32 33 34 35 36 37 38 39 40 41 42 43 44 45 46 47 48 49 50
669
ASUS41 KBOX 091110
RWRBOX

REGIONAL WEATHER ROUNDUP
NATIONAL WEATHER SERVICE TAUNTON MA
600 AM EST FRI DEC 09 2016

NOTE:  "FAIR" INDICATES FEW OR NO CLOUDS BELOW 12,000 FEET WITH NO
SIGNIFICANT WEATHER AND/OR OBSTRUCTIONS TO VISIBILITY.

MAZALL-091200-
EASTERN MASSACHUSETTS

CITY           SKY/WX    TMP DP  RH WIND       PRES   REMARKS
BOSTON         PTCLDY    32  18  56 W15       29.88R WCI  22
BEVERLY        CLEAR     31  17  56 W8        29.85R WCI  23
LAWRENCE       CLEAR     32  18  56 W12G22    29.86R WCI  23
BEDFORD        CLEAR     29  15  56 W6        29.87R WCI  23
BLUE HILL        N/A     28  16  60 W17G24    29.84R WCI  16
NORWOOD        CLEAR     32  17  54 W9G23     29.88R WCI  24
MARSHFIELD     CLEAR     30  18  59 W7G13     29.89R WCI  23
PLYMOUTH       CLEAR     29  18  63 W8        29.89R WCI  21
TAUNTON        CLEAR     30  17  58 SW6       29.89R WCI  24
NEW BEDFORD    CLEAR     32  20  61 W14       29.90R WCI  22
$$

MAZALL-091200-
CAPE COD AND THE ISLANDS

CITY           SKY/WX    TMP DP  RH WIND       PRES   REMARKS
FALMOUTH       CLEAR     32  18  55 MISG      29.88S
HYANNIS        CLEAR     32  18  56 W12G26    29.87R WCI  23
CHATHAM        CLEAR     33  18  53 W13G22    29.88S WCI  24
PROVINCETOWN   CLEAR     34  21  59 W23G32    29.87R WCI  22
NANTUCKET      CLEAR     34  19  54 W18G31    29.90R WCI  23
MARTHAS VNYRD  CLEAR     34  20  56 W16G31    29.91R WCI  24
$$

MAZALL-091200-
CENTRAL AND WESTERN MASSACHUSETTS

CITY           SKY/WX    TMP DP  RH WIND       PRES   REMARKS
WORCESTER      PTCLDY    26  17  68 W17G23    29.84R WCI  13
FITCHBURG      CLEAR     31  16  54 W12G24    29.86R WCI  22
ORANGE         MOCLDY    30  19  63 W9G22     29.88R WCI  22
SPRINGFIELD    FLURRIES  30  20  65 W15       29.90S WCI  19
WESTFIELD      MOCLDY    31  20  63 NW9G21    29.92R WCI  23
NORTH ADAMS    MOCLDY    28  15  58 W9G18     29.92R WCI  19
PITTSFIELD     LGT SNOW  26  19  74 NW20G32   29.89R WCI  12
$$

RIZALL-091200-
RHODE ISLAND

CITY           SKY/WX    TMP DP  RH WIND       PRES   REMARKS
PROVIDENCE     CLEAR     30  18  60 W9        29.92S WCI  22
NEWPORT        CLEAR     31  21  66 W8G16     29.92R WCI  23
BLOCK ISLAND   PTCLDY    35  21  56 W17G29    29.95R WCI  25
SMITHFIELD     CLEAR     28  18  66 W9        29.89R WCI  19
WESTERLY       CLEAR     32  18  56 VRB7      29.95R WCI  26
$$

CTZALL-091200-
CONNECTICUT

CITY           SKY/WX    TMP DP  RH WIND       PRES   REMARKS
BRADLEY INTL   PTCLDY    28  17  63 CALM      29.94R
HARTFORD       MOCLDY    31  19  61 W7        29.96R WCI  24
BRIDGEPORT     CLEAR     34  17  50 W15G22    29.99  WCI  24
DANBURY        CLEAR     30  17  58 SW7G21    29.98R WCI  23
GROTON         CLEAR     33  20  58 NW6       29.96R WCI  28
NEW HAVEN      CLEAR     33  18  53 W9        29.99R WCI  25
CHESTER        FAIR      30  18  59 VRB6G15   29.95R WCI  24
MERIDEN        CLEAR     32  17  54 W7        29.97R WCI  26
WILLIMANTIC    CLEAR     31  19  61 VRB7      29.93S WCI  24
OXFORD         CLEAR     28  16  59 W7        29.96R WCI  21
$$

MEZ002-015-021-024-NHZ003-005-008-011-012-014-VTZ005-008-091200-
NORTHERN NEW ENGLAND

CITY           SKY/WX    TMP DP  RH WIND       PRES   REMARKS
PORTLAND ME    PTCLDY    30  21  69 W12       29.79R WCI  20
BANGOR ME      PTCLDY    25  21  85 W3        29.71R
CONCORD NH     MOCLDY    30  20  66 NW13      29.84R WCI  20
MANCHESTER NH  PTCLDY    31  16  54 W12       29.83R WCI  22
NASHUA NH      PTCLDY    31  19  61 VRB7      29.86R WCI  24
PORTSMOUTH NH  MOCLDY    31  18  60 W7        29.82R WCI  24
JAFFREY NH     CLOUDY    28  17  63 W10G20    29.83R WCI  19
KEENE NH       NOT AVBL
BURLINGTON VT  CLOUDY    27  16  63 NW14G24   29.93R WCI  16
MT. WASHINGTON SNOW       0   0 100 W70G82      N/A  VSB 1/16WCI -35
$$

NYZ052-076-091200-
EASTERN NEW YORK

CITY           SKY/WX    TMP DP  RH WIND       PRES   REMARKS
ALBANY         PTCLDY    28  15  58 NW15G22   29.99R WCI  16
NEW YORK CITY  PTCLDY    34  18  52 W13G25    30.05R WCI  25
$$

ANZALL-091200-
MARINE OBSERVATIONS

STATION/POSITION TIME  TEMP    WIND        PRES    VSBY  WAVE
                       AIR SEA DIR/SP/G                  HT/PER
                 (UTC) (F)     (DEG/KT/KT) (MB)    (MI)  (FT/S)
BOSTON BUOY      1050   36 50  270/ 21/ 25 1009.8R         3/ 4
BUZZARDS BAY     1000   35     290/ 28/ 32 1013.1R
NANTUCKET SOUND  NOT AVBL
MASS BAY-STELLWA 1004   37 47  270/ 31/ 37 1009.4R  1 7/8  4/ 5
ISLE OF SHOALS   1100   33     260/ 19/ 22 1010.0R
S OF BLOCK IS    1055      54                N/A           7/ 6
$$

......................KEY.........................
  SKY/WX - SKY CONDITION/PRESENT WEATHER
  TMP    - TEMPERATURE IN FAHRENHEIT
  DWPT   - DEWPOINT IN FAHRENHEIT
  RH     - RELATIVE HUMIDITY IN PERCENT
  WIND   - DIRECTION AND SPEED IN MPH
  PRES   - MEAN SEA LEVEL PRESSURE IN INCHES OF HG
  WCI    - WIND CHILL INDEX
  VSB    - VISIBILITY IN MILES
  HX     - HEAT INDEX
  TC     - TEMPERATURE IN CELSIUS
  VRB    - VARIABLE WIND DIRECTION
  N/A    - NOT AVAILABLE




USA.gov is the U.S. government's official web portal to all federal, state and local government web resources and services.